Location: Passo di Treia
(43.2833°N, 13.3333°E)
Time: 10:16:05
(UTC+00:00)

Cosmos 2297 - Pass Details

Date: 09 December 2019
Orbit: 837 x 858 km, 71.0° (Epoch: 26 January)

Event Time Altitude Azimuth Distance (km) Brightness Sun altitude
Rises 16:38:46 0° 341° (NNW) 3,430 6.9 -11.9°
Reaches altitude 10° 16:41:30 10° 352° (N) 2,487 6.0 -12.4°
Maximum altitude 16:46:35 32° 55° (NE) 1,417 4.4 -13.3°
Drops below altitude 10° 16:51:37 10° 118° (ESE) 2,461 5.7 -14.2°
Enters shadow 16:52:52 - 123° (ESE) 2,883 6.1 -14.4°
